FW1003 Weather Reports


Display with metric or nautical units.
time (UTC)temp
F
wind
direction
speed
MPH
gust
MPH
rain 1hr
in
rain 24hr
in
rain mn
in
humidity
%
barometer
mb
20190917081651 86 178 1.0 6.0 0.00 0.00 0.00 67 1012.7
20190917080216 85 360 1.0 9.0 0.00 0.00 0.00 68 1012.8
20190917074716 86 91 1.0 4.0 0.00 0.00 0.00 68 1012.9
20190917073115 86 315 2.0 6.0 0.00 0.00 0.00 68 1012.8
20190917071558 85 9 2.0 10.0 0.00 0.00 0.00 68 1012.9
20190917070143 85 338 1.0 8.0 0.00 0.00 0.00 69 1012.8
20190917064557 85 326 0.0 5.0 0.00 0.00 0.00 68 1012.8
20190917063041 85 199 1.0 8.0 0.00 0.00 0.00 68 1012.8
20190917061556 84 344 0.0 5.0 0.00 0.00 0.00 68 1012.7
20190917060027 83 355 1.0 3.0 0.00 0.00 0.00 71 1012.7
20190917054509 83 30 0.0 3.0 0.00 0.00 0.00 71 1012.6
20190917053032 81 27 1.0 3.0 0.00 0.00 0.00 74 1012.4
20190917051506 80 26 0.0 2.0 0.00 0.00 0.00 76 1012.2
20190917050155 78 26 0.0 2.0 0.00 0.00 0.00 79 1012.2
20190917044726 76 26 0.0 0.0 0.00 0.00 0.00 82 1012.1
20190917043226 74 26 0.0 1.0 0.00 0.00 0.00 85 1012.0
20190917041648 72 26 0.0 1.0 0.00 0.00 0.00 89 1011.9
20190917040133 71 26 0.0 0.0 0.00 0.00 0.00 91 1011.8
20190917034625 70 26 0.0 0.0 0.00 0.00 0.00 90 1011.7
20190917033107 70 26 0.0 0.0 0.00 0.00 0.00 89 1011.8
20190917031549 70 26 0.0 0.0 0.00 0.00 0.00 89 1011.8
20190917030116 70 26 0.0 0.0 0.00 0.00 0.00 89 1011.8
20190917024536 70 26 0.0 0.0 0.00 0.00 0.00 89 1011.7
20190917023031 71 26 0.0 0.0 0.00 0.00 0.00 88 1011.7
20190917021527 71 26 0.0 0.0 0.00 0.00 0.00 88 1011.5
20190917020042 72 26 0.0 0.0 0.00 0.00 0.00 88 1011.5
20190917014555 72 26 0.0 1.0 0.00 0.00 0.00 88 1011.5
20190917013049 72 26 0.0 0.0 0.00 0.00 0.00 88 1011.4
20190917011530 72 26 0.0 0.0 0.00 0.00 0.00 88 1011.4
20190917010027 72 26 0.0 0.0 0.00 0.00 0.00 87 1011.3
20190917004525 73 26 0.0 0.0 0.00 0.00 0.00 87 1011.2
20190917003028 73 26 0.0 0.0 0.00 0.00 0.00 86 1011.2
20190917001528 73 26 0.0 0.0 0.00 0.00 0.00 85 1011.2
20190917000027 73 26 0.0 0.0 0.00 0.00 0.00 85 1011.2
20190916234520 73 26 0.0 1.0 0.00 0.00 0.00 84 1011.4
20190916233040 73 26 0.0 1.0 0.00 0.00 0.00 85 1011.3
20190916231510 73 26 0.0 2.0 0.00 0.00 0.00 85 1011.4
20190916230047 73 26 0.0 1.0 0.00 0.00 0.00 85 1011.3
20190916224512 73 26 0.0 1.0 0.00 0.00 0.00 86 1011.3
20190916223019 73 26 0.0 0.0 0.00 0.00 0.00 85 1011.4
20190916221523 74 26 0.0 1.0 0.00 0.00 0.00 85 1011.3
20190916220007 74 26 0.0 2.0 0.00 0.00 0.00 85 1011.3
20190916214504 74 26 0.0 1.0 0.00 0.00 0.00 86 1011.4
20190916213013 74 26 0.0 1.0 0.00 0.00 0.00 84 1011.5
20190916211701 74 26 0.0 0.0 0.00 0.00 0.00 83 1011.5
20190916210228 75 26 0.0 1.0 0.00 0.00 0.00 83 1011.6
20190916204712 75 26 0.0 2.0 0.00 0.00 0.00 83 1011.5
20190916203212 75 26 0.0 1.0 0.00 0.00 0.00 83 1011.7
20190916201650 75 26 0.0 2.0 0.00 0.00 0.00 83 1011.7
20190916200131 76 26 1.0 3.0 0.00 0.00 0.00 82 1011.7
20190916194647 76 34 0.0 3.0 0.00 0.00 0.00 83 1011.7
20190916193133 76 34 0.0 1.0 0.00 0.00 0.00 83 1011.6
20190916191618 76 38 0.0 2.0 0.00 0.00 0.00 83 1011.6
20190916190132 76 38 0.0 2.0 0.00 0.00 0.00 82 1011.5
20190916184633 77 38 0.0 0.0 0.00 0.00 0.00 81 1011.4
20190916183149 77 38 0.0 0.0 0.00 0.00 0.00 80 1011.3
20190916181635 77 38 0.0 1.0 0.00 0.00 0.00 80 1011.5
20190916180305 77 38 0.0 0.0 0.00 0.00 0.00 79 1011.4
20190916174740 78 38 0.0 0.0 0.00 0.00 0.00 79 1011.4
20190916173149 78 38 0.0 0.0 0.00 0.00 0.00 79 1011.2
20190916171633 78 38 0.0 0.0 0.00 0.00 0.00 79 1011.0
20190916170136 79 38 0.0 0.0 0.00 0.00 0.00 79 1010.9
20190916164649 79 38 0.0 0.0 0.00 0.00 0.00 79 1010.8
20190916163223 80 38 0.0 0.0 0.00 0.00 0.00 79 1010.7
20190916161700 80 38 0.0 0.0 0.00 0.00 0.00 77 1010.6
20190916160142 81 38 0.0 1.0 0.00 0.00 0.00 76 1010.5
20190916154643 81 38 0.0 2.0 0.00 0.00 0.00 75 1010.6
20190916153208 82 37 0.0 2.0 0.00 0.00 0.00 74 1010.6
20190916151618 82 35 1.0 4.0 0.00 0.00 0.00 72 1010.7
20190916150226 83 319 0.0 4.0 0.00 0.00 0.00 72 1010.6
20190916144619 83 5 1.0 4.0 0.00 0.00 0.00 71 1010.4
20190916143128 84 127 1.0 7.0 0.00 0.00 0.00 69 1010.4
20190916141659 85 137 1.0 4.0 0.00 0.00 0.00 67 1010.2
20190916140147 86 139 1.0 7.0 0.00 0.00 0.00 66 1010.2
20190916134711 86 165 1.0 8.0 0.00 0.00 0.00 64 1010.1
20190916133128 86 100 2.0 6.0 0.00 0.00 0.00 64 1010.2
20190916131553 85 177 2.0 8.0 0.00 0.00 0.00 65 1010.1
20190916130200 86 162 3.0 8.0 0.00 0.00 0.00 66 1010.2
20190916124556 87 235 2.0 6.0 0.00 0.00 0.00 66 1010.3
20190916123057 87 118 1.0 6.0 0.00 0.00 0.00 63 1010.3
20190916121557 87 227 3.0 8.0 0.00 0.00 0.00 62 1010.2
20190916120150 87 236 4.0 12.0 0.00 0.00 0.00 63 1010.2
20190916114614 87 253 3.0 10.0 0.00 0.00 0.00 63 1010.1
20190916113125 87 148 1.0 10.0 0.00 0.00 0.00 61 1010.2
20190916111624 87 161 6.0 10.0 0.00 0.00 0.00 63 1010.3
20190916110134 87 153 4.0 14.0 0.00 0.00 0.00 63 1010.4
20190916104629 87 83 2.0 8.0 0.00 0.00 0.00 63 1010.5
20190916103053 87 350 2.0 10.0 0.00 0.00 0.00 64 1010.5
20190916101658 87 232 3.0 12.0 0.00 0.00 0.00 63 1010.7
20190916100051 86 204 5.0 11.0 0.00 0.00 0.00 62 1010.6
20190916094534 87 195 4.0 9.0 0.00 0.00 0.00 61 1010.8
20190916093058 87 205 4.0 10.0 0.00 0.00 0.00 62 1010.8
20190916091532 86 157 3.0 9.0 0.00 0.00 0.00 64 1010.8
20190916090040 85 183 5.0 11.0 0.00 0.00 0.00 64 1011.0
20190916084607 84 204 3.0 12.0 0.00 0.00 0.00 67 1010.9
20190916083043 84 159 3.0 10.0 0.00 0.00 0.00 68 1010.9